[[{"header":{"parameterUnit":"m.s-1","parameterCategory":1,"la1":30.2991,"la2":30.254,"lo1":-89.0895,"lo2":-89.0444,"dy":0.0017,"dx":0.0017,"nx":28,"ny":28,"refTime":"2025-04-11T09:00:00:Z","depth":0,"parameterNumber":2,"parameterNumberName":"U-component_of_WINDS"},"data":[0,0,0,0,0,0,0,0,0,0,0,0,0,0,0,0,0,0,0,0,0,0,0,0,0,0,0,0,0,0,0,0,0,0,0,0,0,0,0,0,0,0,0,0,0,0,0,0,0,0,0,0,0,0,0,0,0,0,4.7925,4.7926,0,4.8018,4.8019,4.802,4.7868,4.7863,4.7858,4.7853,4.7955,4.7962,4.797,0,0,0,0,0,0,0,0,0,0,0,0,0,4.7623,4.7629,4.7925,4.7926,4.7927,4.8018,4.8019,4.8021,4.7869,4.7863,4.7856,4.785,4.7952,4.7961,4.797,0,0,0,0,0,0,0,0,0,0,0,0,0,4.7739,4.7631,4.7925,4.7862,4.7858,4.8018,4.8019,4.8021,4.787,4.7862,4.7854,4.7847,4.7949,4.796,4.7972,4.8199,0,0,4.8006,4.8011,0,0,0,0,0,0,0,0,4.7733,4.775,4.787,4.7867,4.7862,4.7923,4.795,4.8081,4.7872,4.7866,4.7852,4.7843,4.7951,4.7962,4.7997,4.8204,4.8208,4.8007,4.8014,4.8019,4.8022,0,0,0,0,0,0,0,4.7725,4.7745,4.7962,4.7872,4.7867,4.7832,4.784,4.7974,4.7952,4.7866,4.7855,4.7868,4.7947,4.7986,4.7998,4.821,4.8007,4.8017,4.8024,4.8029,4.861,4.8618,0,0,0,0,0,0,4.7723,4.774,4.7959,4.7965,4.7776,4.7844,4.7852,4.7912,4.795,4.7948,4.7874,4.786,4.7971,4.7985,4.8001,4.8271,4.8019,4.803,4.8036,4.8601,4.8612,4.8621,0,0,0,0,0,0,4.7717,4.7744,4.7955,4.7849,4.7873,4.7857,4.7925,4.7918,4.7956,4.7956,4.7952,4.7918,4.7965,4.7985,4.8151,4.8272,4.8035,4.8045,4.8591,4.8604,4.8616,4.8812,0,0,0,0,0,0,4.7709,4.7743,4.7828,4.7852,4.788,4.8102,4.7932,4.7925,4.7975,4.7958,4.7995,4.7994,4.796,4.8135,4.8162,4.8284,4.8054,4.858,4.8597,4.8612,4.8795,4.883,4.886,0,0,0,0,0,4.7699,4.788,4.7833,4.786,4.7985,4.8109,4.8125,4.808,4.7986,4.8072,4.8072,4.7993,4.8254,4.8153,4.8183,4.8309,4.8572,4.8592,4.8611,4.878,4.8823,4.8859,0,0,0,0,0,0,4.7873,4.7882,4.783,4.8024,4.8067,4.8083,4.819,4.8127,4.82,4.8181,4.8124,4.8134,4.8312,4.8327,4.8214,4.8532,4.8398,4.8424,4.8516,4.8557,4.8589,4.8583,4.8064,0,0,0,0,0,4.7933,4.8031,4.8035,4.8206,4.823,4.8207,4.826,4.8221,4.8264,4.8282,4.8294,4.8341,4.8433,4.8496,4.8581,4.8795,4.8803,4.8897,4.893,4.8957,4.8981,4.9097,4.914,4.8684,4.8684,4.8684,0,0,4.806,4.8077,4.8143,4.8241,4.827,4.8375,4.8223,4.8341,4.8419,4.8301,4.8458,4.8469,4.8517,4.8709,4.8794,4.8727,4.9108,4.8982,4.9003,4.9013,4.9122,4.9165,4.9203,4.8697,4.8695,4.8693,0,0,4.8344,4.8367,4.8512,4.8544,4.8588,4.8572,4.8607,4.8633,4.8635,4.8791,4.8705,4.8799,4.8959,4.8997,4.9038,4.9338,4.9269,4.9367,4.9539,4.9654,4.9689,4.9721,4.983,4.9869,4.9391,4.9391,4.9392,0,4.8497,4.8649,4.8595,4.8719,4.8766,4.8661,4.881,4.8844,4.8915,4.8951,4.8874,4.9073,4.9099,4.9299,4.9372,4.9408,4.9448,4.9363,4.9688,4.9719,4.9748,4.9851,4.9892,4.9403,4.9402,4.9401,4.9399,0,4.8836,4.8943,4.9056,4.9125,4.9185,4.932,4.9289,4.9356,4.9313,4.9305,4.9467,4.9493,4.9583,4.9627,4.9587,4.9822,4.9779,4.9697,4.9561,4.9804,4.99,4.9939,4.942,4.9416,4.9412,4.9409,0,0,4.9233,4.927,4.9313,4.9343,4.9385,4.9469,4.96,4.9685,4.9745,4.9798,4.9909,5.0047,4.997,5.0017,4.998,5.008,5.0319,4.9985,4.9985,5.0047,5.0582,5.0645,5.0692,5.0272,5.028,5.0285,5.0578,0,4.9517,4.9742,4.9697,4.9918,5.0018,4.9921,5.0036,5.0076,5.0073,5.0159,5.0155,5.0255,5.0146,5.0173,5.0268,5.027,5.0425,5.0247,5.0377,5.0383,5.0369,5.0741,5.0808,5.1084,5.0615,5.0622,5.0626,0,4.9879,4.9944,5.0174,5.0201,5.0241,5.0345,5.042,5.0503,5.0547,5.0537,5.059,5.0534,5.0668,5.0529,5.0714,5.0594,5.0644,5.0653,5.0663,5.0675,5.052,5.0765,5.117,5.1212,5.0685,5.068,5.0676,0,5.0148,5.0293,5.0449,5.0479,5.0513,5.0589,5.0608,5.0643,5.0697,5.0764,5.0799,5.0881,5.0927,5.0993,5.0962,5.0863,5.1153,5.1011,5.1152,5.1153,5.1218,5.1215,5.1639,5.1249,5.1248,5.1247,5.1246,0,5.047,5.0616,5.057,5.0667,5.0828,5.0776,5.0938,5.0945,5.0978,5.1076,5.0997,5.1092,5.1044,5.1136,5.1113,5.1271,5.1292,5.129,5.1282,5.1298,5.1298,5.1331,5.1312,5.1258,5.1256,5.1254,5.1252,0,5.0798,5.0773,5.0938,5.0957,5.0965,5.1083,5.1101,5.1192,5.1182,5.1308,5.1335,5.1321,5.1425,5.14,5.1515,5.1499,5.1698,5.1666,5.1683,5.1676,5.1818,5.1806,5.2279,5.234,5.1909,5.1913,5.1917,0,5.1007,5.1116,5.1146,5.1205,5.1229,5.1326,5.138,5.1334,5.1395,5.1454,5.1539,5.1636,5.171,5.1882,5.1883,5.1971,5.1941,5.2101,5.1954,5.1967,5.1946,5.194,5.1952,5.2131,5.2136,5.214,5.2143,0,5.138,5.1362,5.1443,5.1521,5.1588,5.1647,5.1699,5.1753,5.1711,5.1783,5.1887,5.1946,5.2061,5.2159,5.224,5.2261,5.2198,5.2189,5.2227,5.2245,5.2251,5.2251,5.1764,5.2179,5.2175,5.2173,5.2171,5.2169,5.1655,5.1748,5.1785,5.1878,5.1912,5.1962,5.205,5.205,5.2136,5.2225,5.2193,5.2314,5.2356,5.2457,5.2488,5.2583,5.2523,5.2577,5.2591,5.2605,5.2623,5.2234,5.2597,5.2596,5.2595,5.2594,5.2594,0,5.2026,5.2044,5.213,5.2205,5.2279,5.2209,5.2263,5.2331,5.2437,5.248,5.2555,5.2676,5.2771,5.278,5.287,5.2944,5.2917,5.2969,5.2964,5.2971,5.2671,5.263,5.299,5.299,5.299,5.2989,5.2989,5.2989,5.2227,5.2382,5.2369,5.254,5.2557,5.2673,5.271,5.2757,5.2792,5.293,5.3007,5.3012,5.3043,5.3134,5.3218,5.3219,5.3256,5.3321,5.331,5.3031,5.2992,5.2954,5.2916,5.3329,5.3329,5.3602,5.3604,5.3606]},{"header":{"parameterUnit":"m.s-1","parameterCategory":1,"la1":30.2991,"la2":30.254,"lo1":-89.0895,"lo2":-89.0444,"dy":0.0017,"dx":0.0017,"nx":28,"ny":28,"refTime":"2025-04-11T09:00:00:Z","depth":0,"parameterNumber":3,"parameterNumberName":"V-component_of_WINDS"},"data":[0,0,0,0,0,0,0,0,0,0,0,0,0,0,0,0,0,0,0,0,0,0,0,0,0,0,0,0,0,0,0,0,0,0,0,0,0,0,0,0,0,0,0,0,0,0,0,0,0,0,0,0,0,0,0,0,0,0,1.4124,1.4125,0,1.4255,1.4257,1.4258,1.4263,1.4262,1.426,1.4258,1.4397,1.4402,1.4407,0,0,0,0,0,0,0,0,0,0,0,0,0,1.388,1.3884,1.4124,1.4125,1.4127,1.4255,1.4257,1.4259,1.4263,1.4261,1.426,1.4258,1.4395,1.4401,1.4408,0,0,0,0,0,0,0,0,0,0,0,0,0,1.3996,1.3886,1.4123,1.4145,1.4148,1.4255,1.4257,1.4259,1.4264,1.4261,1.4259,1.4257,1.4393,1.4401,1.4408,1.4504,0,0,1.4432,1.4435,0,0,0,0,0,0,0,0,1.3989,1.4005,1.414,1.4143,1.4147,1.424,1.4222,1.4341,1.4264,1.422,1.4258,1.4256,1.4347,1.4358,1.4388,1.451,1.4516,1.4433,1.4437,1.4441,1.4443,0,0,0,0,0,0,0,1.3981,1.3999,1.4176,1.4142,1.4146,1.4149,1.4163,1.4244,1.4295,1.4224,1.4224,1.424,1.4349,1.4381,1.4392,1.4518,1.4433,1.4439,1.4444,1.4447,1.4725,1.4728,0,0,0,0,0,0,1.3969,1.3993,1.4172,1.418,1.4061,1.4155,1.4171,1.4213,1.4294,1.4305,1.4241,1.4239,1.4369,1.4383,1.4397,1.4514,1.4441,1.4448,1.4452,1.4723,1.4726,1.4729,0,0,0,0,0,0,1.3963,1.3985,1.4166,1.4086,1.411,1.4162,1.4209,1.4217,1.4249,1.4308,1.4317,1.4265,1.4368,1.4386,1.4477,1.4519,1.4451,1.4459,1.4719,1.4724,1.4727,1.4749,0,0,0,0,0,0,1.3956,1.3983,1.4019,1.4087,1.4114,1.4244,1.4212,1.4221,1.4262,1.426,1.4332,1.4342,1.4367,1.4465,1.4485,1.4528,1.4465,1.4716,1.4721,1.4726,1.4745,1.4754,1.4761,0,0,0,0,0,1.3948,1.4021,1.4021,1.4042,1.416,1.4246,1.4262,1.4288,1.4265,1.4303,1.434,1.434,1.4511,1.4475,1.4496,1.4543,1.4713,1.472,1.4726,1.4742,1.4752,1.4761,0,0,0,0,0,0,1.3958,1.403,1.4031,1.4128,1.4181,1.4247,1.4295,1.4298,1.4359,1.4355,1.4386,1.4402,1.4493,1.4527,1.4485,1.464,1.461,1.462,1.4614,1.4625,1.4633,1.4623,1.4471,0,0,0,0,0,1.3971,1.4033,1.4094,1.4174,1.42,1.4243,1.4281,1.4296,1.4353,1.4376,1.442,1.4476,1.4542,1.4585,1.4649,1.475,1.4766,1.4792,1.48,1.4807,1.4816,1.4872,1.4885,1.4749,1.4749,1.4749,0,0,1.4,1.4047,1.4085,1.4177,1.422,1.4285,1.4262,1.4332,1.4381,1.4387,1.4475,1.451,1.4574,1.467,1.4715,1.4701,1.4857,1.4814,1.4819,1.4825,1.488,1.4892,1.4904,1.4753,1.4752,1.4752,0,0,1.4085,1.4127,1.4198,1.4241,1.4305,1.4333,1.4349,1.4415,1.4438,1.4527,1.4532,1.4591,1.4705,1.475,1.4788,1.4889,1.4892,1.4909,1.4952,1.5006,1.5016,1.5026,1.5063,1.5075,1.4918,1.4918,1.4918,0,1.4113,1.4211,1.4235,1.4304,1.4345,1.4351,1.4424,1.4465,1.4547,1.4576,1.4559,1.4701,1.4745,1.4852,1.4876,1.4906,1.4927,1.4902,1.5012,1.5022,1.5032,1.5067,1.5081,1.492,1.492,1.492,1.492,0,1.4242,1.4309,1.4359,1.4437,1.4483,1.4554,1.459,1.4634,1.4644,1.4674,1.4765,1.4817,1.4892,1.4918,1.493,1.5027,1.5017,1.5006,1.4976,1.5046,1.508,1.5094,1.4923,1.4922,1.4922,1.4921,0,0,1.434,1.4428,1.4446,1.4481,1.4552,1.4605,1.4676,1.4748,1.4786,1.4842,1.4903,1.4998,1.4988,1.5031,1.5048,1.5095,1.5173,1.5079,1.5081,1.5095,1.5283,1.5292,1.5307,1.5174,1.5176,1.5179,1.5278,0,1.4433,1.4559,1.4582,1.4692,1.4755,1.4762,1.4824,1.4874,1.4904,1.4962,1.4995,1.5062,1.5043,1.5069,1.5116,1.5153,1.5211,1.5146,1.5232,1.5235,1.5217,1.5325,1.5334,1.5426,1.5291,1.5294,1.5295,0,1.456,1.4618,1.4734,1.4795,1.4823,1.4878,1.4945,1.5001,1.5058,1.5076,1.5123,1.5135,1.521,1.5175,1.528,1.5235,1.5271,1.5295,1.5299,1.5309,1.527,1.5339,1.5455,1.5469,1.5316,1.5315,1.5313,0,1.4621,1.4727,1.481,1.484,1.4914,1.4953,1.4986,1.504,1.5082,1.5141,1.5168,1.5236,1.5273,1.5325,1.5355,1.5327,1.5457,1.5425,1.5475,1.5474,1.5504,1.5502,1.5629,1.5525,1.5525,1.5524,1.5524,0,1.4724,1.4795,1.4838,1.489,1.4969,1.4995,1.5074,1.5106,1.5155,1.5213,1.5223,1.5277,1.5312,1.5372,1.5396,1.5479,1.5495,1.5513,1.5518,1.5513,1.5511,1.5538,1.5533,1.5528,1.5527,1.5527,1.5526,0,1.4805,1.4837,1.4928,1.499,1.5007,1.5063,1.5117,1.5167,1.5195,1.5269,1.5288,1.5333,1.5404,1.5438,1.5526,1.5542,1.5637,1.5638,1.5617,1.5619,1.5668,1.5663,1.5818,1.584,1.572,1.5721,1.5722,0,1.487,1.4924,1.4991,1.503,1.5063,1.5126,1.5168,1.5195,1.5239,1.5308,1.535,1.5421,1.5479,1.5592,1.5634,1.5702,1.5705,1.5754,1.5715,1.5708,1.5707,1.5704,1.571,1.5762,1.5763,1.5764,1.5765,0,1.4981,1.4994,1.5053,1.5118,1.5167,1.522,1.5272,1.5303,1.5339,1.5387,1.5459,1.5504,1.5593,1.5664,1.5734,1.5769,1.5774,1.5776,1.5792,1.5787,1.5773,1.5782,1.5637,1.5773,1.5772,1.5772,1.5771,1.5771,1.5057,1.5105,1.516,1.5225,1.5267,1.5315,1.5365,1.5399,1.5459,1.5533,1.5545,1.5622,1.5678,1.5772,1.5809,1.587,1.5859,1.5881,1.5887,1.5892,1.5895,1.5762,1.5883,1.5883,1.5883,1.5882,1.5882,0,1.5169,1.5204,1.5264,1.5335,1.5387,1.5384,1.5441,1.5485,1.5552,1.5603,1.566,1.5742,1.5811,1.5857,1.5926,1.5966,1.597,1.5983,1.5982,1.599,1.5901,1.5881,1.5979,1.5979,1.5979,1.5979,1.5979,1.5979,1.5234,1.5316,1.5335,1.5438,1.5473,1.5547,1.5579,1.5624,1.5665,1.5756,1.5812,1.5841,1.589,1.5963,1.6026,1.6038,1.6063,1.6077,1.6089,1.6006,1.5996,1.5986,1.5968,1.6082,1.6083,1.6173,1.6174,1.6175]}]]